weather.gov     
National Weather Service

Regional Weather Roundup
NWS Homepage
This page is being discontinued on March 12, 2014.
The same data is available at this site. Please update your bookmarks.
Thank you, and we apologize for the inconvenience.
Please send an email to SR-SRH.Webmaster@noaa.gov with any concerns.


Current Version
Previous Version:    01  02  03  04  05  06  07  08  09  10  11  12  13  14  15  16  17  18  19  20  21  22  23  24  25  26  27  28  29  30  
   31  32  33  34  35  36  37  38  39  40  41  42  43  44  45  46  47  48  49  50  51  52  53  
[Printable]
718
ASUS44 KMEG 250610
RWRTN
TENNESSEE HOURLY STATE WEATHER ROUNDUP
NATIONAL WEATHER SERVICE MEMPHIS TN
100 AM CDT FRI APR 25 2014

TNZ002-004-019-021-049-052-054-088>092-250700-
WEST TENNESSEE

CITY           SKY/WX    TMP DP  RH WIND       PRES   REMARKS
MEMPHIS INTL   MOCLDY    63  57  82 W12       29.77R
NWS MEMPHIS      N/A     64 N/A N/A MISG        N/A
JACKSON        MOCLDY    65  61  87 SW10      29.72S
DYERSBURG      CLOUDY    64  54  68 SW9       29.71F
UNION CITY     CLOUDY    63  61  94 SW8       29.69S
PARIS          MOCLDY    60  58  93 SW12      29.70S
LEXINGTON      MOCLDY    63  61  94 S10       29.71F
$$

TNZ008-025-027-028-033-062-065-066-250700-
NORTH MIDDLE TENNESSEE

CITY           SKY/WX    TMP DP  RH WIND       PRES   REMARKS
NASHVILLE      CLOUDY    61  59  93 S9        29.75F
DICKSON        FAIR      61  59  94 S8        29.73S
PORTLAND         N/A     61  57  88 S10       29.73F
CLARKSVILLE    CLOUDY    63  59  87 S8        29.69F
SMYRNA         MOCLDY    61  61 100 S6        29.77F
MURFREESBORO   FAIR      62  60  93 S5        29.78F
COOKEVILLE     PTCLDY    63  57  82 CALM      29.78F
GALLATIN       FAIR      62  61  97 S15       29.76F
CROSSVILLE     MOCLDY    67  47  48 S6        29.83F
$$

TNZ061-075-076-078-094-096-097-250700-
SOUTH MIDDLE TENNESSEE

CITY           SKY/WX    TMP DP  RH WIND       PRES   REMARKS
LEWISBURG      CLOUDY    62  59  90 S10       29.76F
FAYETTEVILLE   FAIR      65  57  75 W8        29.79S
TULLAHOMA      CLEAR     63  57  82 CALM      29.80R
WINCHESTER     PTCLDY    70  57  64 S10       29.79F
MCMINNVILLE    PTCLDY    66  57  72 SW5       29.78F
COLUMBIA       MOCLDY    64  64 100 S5        29.74F
SHELBYVILLE    CLOUDY    63  61  94 SE5       29.80F
$$

TNZ017-018-042-046-047-250700-
NORTHEAST TENNESSEE

CITY           SKY/WX    TMP DP  RH WIND       PRES   REMARKS
TRI CITIES     FAIR      54  39  57 CALM      29.90S
ELIZABETHTON   CLEAR     52  43  71 CALM      29.93R
$$

TNZ012-013-036-069-073-074-250700-
CENTRAL EAST TENNESSEE

CITY           SKY/WX    TMP DP  RH WIND       PRES   REMARKS
KNOXVILLE      CLOUDY    67  44  43 S7        29.82
OAK RIDGE      FAIR      67  45  45 CALM      29.84F
$$

TNZ083-085-099-250700-
SOUTHEAST TENNESSEE

CITY           SKY/WX    TMP DP  RH WIND       PRES   REMARKS
CHATTANOOGA    LGT RAIN  68  52  56 SE8       29.82F
$$

SKY/WX REPORTED AS FAIR MEANS FEW OR NO CLOUDS BELOW
12 THOUSAND FEET.





U.S. Dept. of Commerce
NOAA National Weather Service
1325 East West Highway
Silver Spring, MD 20910
E-mail: w-nws.webmaster@noaa.gov
Page last modified: May 16, 2007
NATIONAL WEATHER SERVICE: for Safety, for Work, for Fun - FOR LIFE